Regional Weather Roundup
Issued by NWS

Home | Current Version | Previous Version | Text Only | Print | Product List | Glossary On
Versions: 1 2 3 4 5 6 7 8 9 10 11 12 13 14 15 16 17 18 19 20 21 22 23 24 25 26 27 28 29 30 31 32 33 34 35 36 37 38 39 40 41 42 43 44 45 46 47 48 49 50
000
ASUS43 KLOT 250610
RWRIL

ILLINOIS REGIONAL WEATHER ROUNDUP
NATIONAL WEATHER SERVICE CHICAGO/ROMEOVILLE IL
100 AM CDT FRI APR 25 2014

NOTE: "FAIR" INDICATES FEW OR NO CLOUDS BELOW 12,000 FEET WITH NO
SIGNIFICANT WEATHER AND/OR OBSTRUCTIONS TO VISIBILITY.

* THESE STATIONS ARE NOT UNDER NWS QUALITY CONTROL. THEY ALSO MAY NOT
  REPORT WEATHER SUCH AS PRECIPITATION OR FOG.

ILZ001-002-007-009-015-016-024-250700-
NORTHWEST ILLINOIS

CITY           SKY/WX    TMP DP  RH WIND       PRES   REMARKS
MOLINE         CLOUDY    51  48  89 NW14G23   29.70R
6HR MIN TEMP:  51; 6HR MAX TEMP:  56; 6HR PCP:  0.05;

STERLING*      MOCLDY    54  48  82 NE7       29.66R
SAVANNA*       CLOUDY    51  48  91 NW13      29.68S
$$

ILZ003-004-008-010-011-017-018-250700-
NORTH CENTRAL ILLINOIS

CITY           SKY/WX    TMP DP  RH WIND       PRES   REMARKS
ROCKFORD       LGT RAIN  50  45  83 NW25      29.68F
6HR MIN TEMP:  50; 6HR MAX TEMP:  61; 6HR PCP:  0.19;

FREEPORT*      DRIZZLE   51  49  93 NW3       29.69F
ROCHELLE*      RAIN      49  45  85 E14       29.61F
DE KALB*       LGT RAIN  47  44  88 N9        29.68R
PERU*          RAIN      52  47  82 CALM      29.62
$$

ILZ005-006-012>014-019>023-250700-
NORTHEAST ILLINOIS

CITY           SKY/WX    TMP DP  RH WIND       PRES   REMARKS
CHICAGO-OHARE  LGT RAIN  51  41  68 N3        29.64R
6HR MIN TEMP:  51; 6HR MAX TEMP:  62; 6HR PCP:  0.03;

CHICAGO-MIDWAY LGT RAIN  56  36  47 SE9       29.63S
6HR MIN TEMP:  56; 6HR MAX TEMP:  62; 6HR PCP: TRACE;

AURORA         LGT RAIN  54  41  61 E7        29.64R
6HR MIN TEMP:  54; 6HR MAX TEMP:  61; 6HR PCP:  0.02;

LANSING*       LGT RAIN  53  35  50 SE12G20   29.64S
JOLIET*        LGT RAIN  52  42  70 SE5       29.64R
WAUKEGAN       LGT RAIN  44  36  73 E3        29.68R
6HR MIN TEMP:  43; 6HR MAX TEMP:  47; 6HR PCP:  0.07;

DUPAGE AIRPORT RAIN      51  44  77 E3        29.64R
6HR MIN TEMP:  51; 6HR MAX TEMP:  61; 6HR PCP:  0.04;

KANKAKEE*      RAIN      51  46  83 E9        29.62F
WHEELING       LGT RAIN  49  38  65 NE6       29.67R
6HR MIN TEMP:  49; 6HR MAX TEMP:  62; 6HR PCP:  0.02;

MORRIS*        LGT RAIN  54  44  68 SE9       29.62S
ROMEOVILLE*    LGT RAIN  52  40  64 S10       29.64R
NORTHERLY ISL    N/A     49  41  74 SE2         N/A
$$

LMZ740>746-250700-
SOUTHERN LAKE MICHIGAN

STATION/POSITION SKY/WX   TEMP    WIND        PRES    VSBY  WAVE
                          AIR SEA DIR/SP/G                  HT/PER
                          (F)     (DEG/KT/KT) (MB)    (MI)  (FT/S)
WAUKEGAN HARBOR            44     110/ 11/ 15 1006.4S
HARRISON CRIB              47     120/ 11/ 13   N/A
BURNHAM HARBOR             49      80/  1/ 11   N/A
CALUMET HARBOR             57     140/ 12/ 19 1004.4R
MICHIGAN CITY              53     110/ 18/ 24   N/A
$$

ILZ025>027-034>036-040-047-049-050-058-095>099-250700-
WEST-CENTRAL ILLINOIS

CITY           SKY/WX    TMP DP  RH WIND       PRES   REMARKS
QUINCY         CLOUDY    51  49  92 NW18      29.71S
GALESBURG*     CLOUDY    52  51  97 NW16      29.69R
MACOMB*        CLOUDY    51  51 100 NW22      29.71R FOG
JACKSONVILLE*  DRIZZLE   54  53  95 NW12G20   29.67S
PITTSFIELD*    CLOUDY    54  50  88 NW15      29.70R
$$

ILZ028>032-037-038-041>044-048-051>054-059>061-250700-
CENTRAL ILLINOIS

CITY           SKY/WX    TMP DP  RH WIND       PRES   REMARKS
PONTIAC        CLOUDY    57  54  88 CALM      29.63S
BLOOMINGTON    MOCLDY    56  53  89 W10       29.64S
DECATUR        CLOUDY    57  55  93 S5        29.63F
PEORIA         LGT RAIN  56  51  84 NW10      29.65R
6HR MIN TEMP:  56; 6HR MAX TEMP:  66; 6HR PCP:  0.06;

LACON*         DRIZZLE   54  50  87 NW9       29.62S
LINCOLN*       CLOUDY    59  56  91 W3        29.63S
SPRINGFIELD    CLOUDY    58  55  90 W7        29.64R
6HR MIN TEMP:  58; 6HR MAX TEMP:  73; 6HR PCP:  0.15;

TAYLORVILLE    CLOUDY    55  54  94 SW7       29.63F
$$

ILZ033-039-045-046-055>057-062-063-250700-
EAST-CENTRAL ILLINOIS

CITY           SKY/WX    TMP DP  RH WIND       PRES   REMARKS
CHAMPAIGN      CLOUDY    57  55  93 S6        29.62F
RANTOUL*       FAIR      58  54  86 CALM      29.62F
MATTOON        RAIN      56  56 100 SE5       29.62F
PARIS*         RAIN      56  52  87 SE5       29.64F
$$

ILZ079-100>102-250700-
SOUTHWEST ILLINOIS

CITY           SKY/WX    TMP DP  RH WIND       PRES   REMARKS
ALTON          CLOUDY    57  57 100 NW14      29.67S
BELLEVILLE     LGT RAIN  57  57 100 SW9       29.66R
CAHOKIA*       LGT RAIN  58  56  93 W13       29.68S
SPARTA*        RAIN      55  55 100 SW6       29.68S
$$

ILZ064>066-069>071-074>076-080>082-084>086-088>090-092>094-250700-
SOUTH-CENTRAL ILLINOIS

CITY           SKY/WX    TMP DP  RH WIND       PRES   REMARKS
CARBONDALE     LGT RAIN  58  56  93 CALM      29.67F
6HR MIN TEMP:  57; 6HR MAX TEMP:  74; 6HR PCP:  1.10;

CAIRO*         CLOUDY    61  55  82 W3        29.68F
MARION         LGT RAIN  57  57 100 CALM      29.66F
MT. VERNON     CLOUDY    57  48  72 S6        29.67R
CENTRALIA*     LGT RAIN  56  55  94 W3        29.65F
SALEM*         RAIN      58  58  98 CALM      29.64F
METROPOLIS*    CLOUDY    60  56  84 W3        29.68S
$$

ILZ067-068-072-073-078-083-087-091-250700-
SOUTHEAST ILLINOIS

CITY           SKY/WX    TMP DP  RH WIND       PRES   REMARKS
FLORA*         RAIN      57  56  98 NE6       29.62F
FAIRFIELD*     TSTM      57  57 100 CALM      29.65R
HARRISBURG*    LGT RAIN  57  56  97 W13       29.67F
ROBINSON*      LGT RAIN  59  57  96 CALM      29.65F
CARMI*         TSTM      62  61  98 S9        29.64S
$$

ABBREVIATIONS USED IN REMARKS
   TC - TEMPERATURE IN CELSIUS
  WCI - WIND CHILL INDEX
   HX - HEAT INDEX
  VSB - VISIBILITY
$$




USA.gov is the U.S. government's official web portal to all federal, state and local government web resources and services.